星链-36338(STARLINK-36338)

导读

STARLINK-36338是美国太空探索技术公司SpaceX星链星座的卫星,于2026年2月7日发射升空。星链项目旨在构建覆盖全球的低轨卫星互联网星座,为全球偏远地区、海洋等高覆盖难度区域提供高速低延迟的宽带网络服务,该卫星入列后将进一步扩充星链星座的服务覆盖能力与网络容量。

Basic Information
目录编号:
67704
目录名称:
STARLINK-36338
国际标识:
2026-025M
轨道中心:
EARTH
卫星名称:
星链-36338
卫星全名:
星链-36338(STARLINK-36338)
卫星状态:
在轨 (已飞行209 天)
发射日期:
2026-02-07 UTC
国别 :
美国 (US)
星等 :
--
Orbit Information
数据来源 国际轨道数据
星历时间: 2026-09-04T14:16:44+0800
6小时前
查看轨道信息
半长轴: 6843.643km
偏心率: 0.0001005
轨道倾角: 97.285°
近地点辐角 85.678°
升交点赤经 357.337°
平近点角 274.458°
近地点: 464.818km
远地点: 466.194km
周期: 93.905分钟
每日圈数: 15.334575
Detailed Information
固有亮度:
5
最大亮度:
2.5
卫星平台:
Starlink V1.0
覆盖范围:
全球
运营商:
太空探索技术公司
运营商所在国:
美国
制造商(研发单位):
太空探索技术公司
制造商所在国:
美国
使用方式:
暂无
Satellite Introduction
Starlink 计划是 SpaceX 推出的全球卫星互联网项目,通过发射低轨道卫星,为全球尤其是偏远地区提供高速、低延迟的互联网服务。自 2019 年起,Starlink 已部署数千颗卫星,旨在缩小全球数字鸿沟,推动互联网普及。该项目还为军事、航空等行业提供通信支持,带来广泛经济效益。
2D Orbit Map
3D Orbit Map
Orbit Altitude Analysis Chart
Orbit Inclination Analysis Chart
Orbit Comprehensive Analysis Chart
View Comprehensive Chart
Conjunction Data List
Event ID Objects TCA Miss Dist (km) Collision Risk Probability Collision Risk Index (CRI) Action
CDM_260906-060305-146706-770421
2026-09-06T
06:03:56+0000
2.480 km
极远距离
1.778232E-6 低风险 0.4
CDM_260906-065005-146706-770421
2026-09-06T
06:50:54+0000
2.523 km
极远距离
1.724541E-6 低风险 0.4
CDM_260905-121605-195806-770421
2026-09-05T
12:16:05+0000
2.650 km
极远距离
1.408011E-6 低风险 0.38
CDM_260904-115901-921006-770421
2026-09-04T
11:59:27+0000
2.921 km
极远距离
6.026262E-7 极低风险 0.31